Regional Weather Roundup
Issued by NWS

Home | Current Version | Previous Version | Text Only | Print | Product List | Glossary On
Versions: 1 2 3 4 5 6 7 8 9 10 11 12 13 14 15 16 17 18 19 20 21 22 23 24 25 26 27 28 29 30 31 32 33 34 35 36 37 38 39 40 41 42 43 44 45 46 47 48 49 50
251
ASUS42 KKEY 280210
RWRKEY

FLORIDA REGIONAL WEATHER ROUNDUP FOR THE FLORIDA KEYS
NATIONAL WEATHER SERVICE KEY WEST FLORIDA
1000 PM EDT FRI MAY 27 2016

...SOUTH FLORIDA AND THE KEYS...

CITY           SKY/WX    TMP DP  RH WIND       PRES   REMARKS
FORT MYERS     CLEAR     78  69  73 E9        29.95R
SW REGIONAL AP CLEAR     78  69  73 E12       29.96R
NAPLES         CLOUDY    75  73  93 CALM      29.96R
MIAMI          PTCLDY    80  70  71 E10       29.96R
WEST KENDALL   CLEAR     76  69  79 E5        29.95R
HOMESTEAD      CLEAR     78  72  80 E5        29.95R
MARATHON       PTCLDY    81  68  64 E6        29.94R
BOCA CHICA NAS PTCLDY    80  70  71 E10       29.93S
KEY WEST INTL  CLEAR     80  70  71 E7        29.94R

...INTERNATIONAL WEATHER...

CITY           SKY/WX    TMP DP  RH WIND       PRES   REMARKS
NASSAU BAHAMAS NOT AVBL
CANCUN MEXICO  PTCLDY    81  75  83 E12       29.85R
COZUMEL MEXICO CLEAR     79  73  83 SE7       29.84S

ADJACENT COASTAL WATERS...

STATION/POSITION TIME  SKY/WX   TEMP    WIND        PRES    WAVE
                                AIR SEA DIR/SP/G            HT/PER
                 (UTC)          (F)     (DEG/KT/KT) (MB)    (FT/S)
PULASKI SHOAL LI 0200            80     140/  8/  9 1013.8R
SAND KEY         0150            81     120/ 12/ 14 1014.0R
SOMBRERO KEY     NOT AVBL
LONG KEY         0200            81 83   90/ 10/ 12 1014.3R
MOLASSES REEF    0000            80 83   90/ 10/ 11 1013.5R
FOWEY ROCKS      0200            80 83   70/ 11/ 12 1014.8R

$$




USA.gov is the U.S. government's official web portal to all federal, state and local government web resources and services.